Back to catalog

STARLINK-37567

AliveCommunicationsSSO
NORAD 68903·PAYLOAD·🇺🇸 United States

Launched Apr 30, 2026 from Vandenberg Space Force Base

Loading…

Next Passes (next 24 hours)

TLE

FreshSource: CelesTrak SupGP

Epoch: Sep 14, 2026, 15:14 UTC

1 68903C 26097J   26257.63520833 -.00062552  00000+0 -19424-2 0  2572
2 68903  97.2848  91.8338 0001696  88.9323 185.5179 15.33459201    13

Track STARLINK-37567 in real time with AllMySat

Download on the App Store